Theta_e
318 317 320 319 318 321 322 323 319 318 319 312 313 315 315 318 318 319 318 318 318 317 315 315 314 313 315 316 317 317 317 317 318 315 315 322 325 323 322 324 323 326 336 339 342 344 342 344 345 344 344 343 343 343 343 343 342 342 341 340 340 339 339 338 336 335 337 338 338 338 337 338 338 338 339 339 339 338 339 339 339 339 338 336 332 329 328 326 325 324 322 322 322 322 322 322 323
319 320 320 319 318 323 323 322 317 314 314 310 313 316 315 317 317 319 318 318 318 316 313 313 314 313 313 314 315 316 317 317 317 316 317 320 321 325 323 323 323 327 336 339 342 344 343 344 344 344 344 343 343 343 343 343 342 342 341 341 340 340 339 338 336 335 337 338 338 337 336 337 337 339 338 338 338 338 339 338 339 338 338 337 334 332 330 328 325 324 323 323 324 325 325 325 325
319 321 319 319 320 323 323 321 316 310 310 309 311 316 316 317 317 318 317 316 316 314 312 313 314 314 315 316 316 317 318 316 316 316 317 321 323 325 323 324 324 327 336 339 342 343 343 344 344 344 343 344 343 342 343 342 342 342 341 341 340 341 340 338 337 336 337 338 337 336 336 337 337 338 338 338 339 338 338 338 338 338 338 337 337 335 334 330 327 326 326 328 329 328 327 328 328
318 320 318 320 323 322 322 320 316 311 309 309 310 315 317 317 317 317 316 315 314 313 314 316 316 315 316 318 317 316 318 317 317 316 320 324 323 323 322 324 325 327 333 338 342 342 343 344 343 344 343 344 342 342 342 342 342 342 341 341 341 341 340 339 337 336 337 338 336 336 335 335 337 337 337 337 338 338 337 337 337 338 337 337 337 337 337 334 332 331 331 330 329 327 325 324 325
318 318 317 321 324 321 321 319 317 313 310 311 310 315 317 315 316 316 315 315 313 313 315 316 317 316 315 317 316 317 318 318 318 316 321 325 321 323 322 323 325 327 331 337 341 342 343 343 343 343 343 343 342 342 342 341 341 341 342 341 341 340 340 339 335 334 336 336 335 335 334 334 335 336 337 336 337 336 335 336 336 337 337 337 337 336 337 334 333 332 331 329 327 326 324 323 323
318 318 317 320 321 319 319 315 314 313 313 316 314 315 316 315 315 314 315 315 313 313 314 316 317 316 316 316 316 318 317 316 319 319 321 324 321 322 322 323 326 327 331 337 340 342 342 343 343 343 342 342 342 342 341 341 340 342 342 341 341 340 340 338 335 335 336 334 334 335 334 334 334 334 335 334 336 334 332 334 335 336 336 336 336 336 335 334 333 330 329 327 327 326 324 323 324
318 319 321 321 320 320 319 314 313 315 315 316 316 316 316 315 313 313 316 316 315 314 313 314 314 315 316 315 316 316 314 315 318 320 321 322 322 323 323 324 325 326 330 334 339 342 342 342 342 343 343 342 342 342 341 340 341 342 341 341 341 340 340 338 335 336 336 335 335 334 335 336 334 334 332 332 335 334 333 334 335 336 336 335 335 335 333 334 333 330 328 327 326 324 323 322 324
318 319 322 322 322 322 319 315 316 317 315 314 315 316 316 315 313 313 316 317 316 315 314 314 313 315 315 313 316 316 314 315 314 318 323 323 323 323 323 324 326 326 328 331 336 340 341 341 342 342 342 342 342 342 341 341 341 341 341 341 340 340 340 338 336 337 336 336 336 334 334 334 335 335 333 331 331 332 333 333 334 335 335 335 334 333 332 333 332 329 327 325 324 322 323 321 323
318 318 321 322 320 320 318 316 317 317 317 315 315 315 315 314 313 314 316 316 315 315 315 315 314 315 315 315 318 317 317 317 316 321 326 324 324 325 325 325 326 327 328 330 333 337 340 340 340 341 341 342 341 341 341 341 340 340 341 340 340 340 339 338 336 337 337 336 336 334 333 333 336 337 335 332 331 332 333 333 334 334 334 334 333 331 330 331 330 328 327 325 324 324 324 322 323
319 318 322 322 318 316 314 315 317 317 317 316 315 315 314 313 313 314 315 316 314 315 314 312 314 315 315 316 317 316 316 318 321 325 327 325 325 327 327 326 327 328 329 332 334 337 340 338 338 340 340 341 341 341 341 341 340 340 340 340 340 339 339 338 336 336 337 337 335 334 333 334 337 337 337 335 333 333 333 334 334 334 335 333 331 330 330 330 329 328 327 325 325 324 323 322 320
319 317 320 320 315 312 312 314 317 317 316 315 315 314 313 312 312 314 314 315 313 313 314 312 315 316 315 316 316 315 314 315 318 322 327 327 326 327 328 327 328 329 331 334 336 337 339 338 337 339 339 340 340 341 341 341 340 340 340 339 340 339 339 338 337 336 336 337 335 334 334 335 336 337 337 336 335 334 334 334 334 334 334 332 331 331 331 329 329 328 327 325 323 323 322 322 315
318 318 318 316 314 313 314 315 316 317 316 316 315 314 312 311 313 314 314 315 314 313 314 314 314 314 315 316 315 315 314 313 315 319 326 328 327 328 328 329 330 330 332 333 335 336 338 338 338 338 339 339 339 340 340 340 340 340 340 340 340 339 339 338 337 336 335 337 335 334 335 335 337 337 337 336 336 335 334 335 334 334 332 331 331 332 331 329 328 327 326 325 322 322 320 320 311
319 319 317 314 316 317 316 316 317 318 316 316 315 313 310 311 314 314 315 315 314 314 315 313 313 313 315 315 314 315 313 313 315 318 323 327 328 329 329 330 331 332 332 333 334 335 336 338 339 339 339 339 339 339 339 339 339 339 339 339 340 339 339 338 337 336 334 335 336 334 334 336 337 337 337 336 336 335 335 335 334 333 331 331 332 331 330 328 328 327 326 325 323 322 318 318 309
319 318 317 316 316 317 316 317 316 316 315 316 314 312 311 312 313 312 314 315 315 314 312 312 312 314 314 314 315 314 311 312 317 320 323 327 328 328 329 329 330 332 333 334 334 335 335 337 338 339 338 339 338 338 339 339 338 338 339 339 339 339 338 338 337 337 335 334 335 335 334 335 336 337 336 336 336 335 335 335 335 333 332 332 331 330 329 328 328 326 325 324 324 323 317 314 307
318 317 318 317 316 316 315 317 318 316 315 316 313 311 312 311 310 312 313 314 315 312 310 311 311 313 314 313 314 311 309 313 319 323 324 326 327 328 327 327 329 329 331 333 334 335 335 336 337 338 338 338 339 339 339 338 338 337 338 339 339 339 338 338 337 337 335 334 335 334 334 334 335 336 336 336 335 336 335 335 334 333 333 332 331 330 329 328 327 326 324 324 324 323 318 311 305
316 316 318 315 315 315 315 317 317 316 315 315 312 310 313 312 310 311 311 311 314 312 311 312 311 312 312 311 311 308 308 313 318 321 321 322 324 325 323 323 325 326 328 330 332 333 334 336 336 337 338 338 338 339 339 338 338 337 337 337 339 339 339 338 337 337 335 333 334 334 334 334 335 335 335 336 335 336 335 335 334 333 333 332 331 330 329 328 327 326 323 324 324 323 321 313 304
314 317 316 312 313 314 315 318 317 316 316 314 312 311 315 315 312 311 309 309 312 313 312 313 311 310 309 308 307 306 307 310 313 316 316 316 317 319 317 316 317 319 322 325 328 330 332 335 335 336 336 337 338 338 338 338 338 337 337 336 337 339 339 338 337 337 335 333 333 333 333 333 334 335 335 336 335 335 334 334 334 333 333 331 331 330 329 328 327 326 323 323 324 323 323 319 308
316 317 314 311 313 313 314 318 316 315 316 315 313 312 314 316 314 312 311 311 312 313 312 312 309 308 309 307 307 307 308 308 310 312 312 312 313 314 314 313 313 313 314 317 322 325 328 331 333 335 336 336 337 337 337 338 338 336 337 337 337 337 338 337 336 335 335 334 333 332 333 333 333 335 335 335 335 335 334 333 332 333 333 331 330 329 329 329 327 327 323 322 324 323 323 323 317
316 317 315 313 314 313 313 316 315 315 315 315 313 310 312 315 313 312 313 314 313 313 314 313 310 309 310 309 307 308 308 308 309 310 311 311 311 312 312 312 312 312 313 314 315 318 322 326 329 332 335 336 336 336 336 337 337 336 335 336 336 336 337 337 336 336 336 335 334 333 333 334 334 334 334 334 335 335 334 333 331 332 333 330 330 329 329 329 328 327 323 320 323 324 323 322 322
316 317 316 315 315 313 312 313 314 314 313 315 314 310 311 313 311 312 313 314 314 313 312 312 311 310 310 308 308 308 308 308 308 309 310 310 310 310 310 311 311 311 313 314 314 314 315 319 324 328 331 334 336 336 336 336 337 336 334 334 335 336 336 335 337 336 336 336 335 335 333 334 334 334 334 334 334 334 334 333 331 330 332 331 330 329 329 329 328 328 323 320 322 324 324 322 322
316 316 316 315 313 314 313 312 313 312 311 314 313 311 312 311 310 311 312 314 315 312 309 309 310 309 308 308 307 307 307 308 307 308 309 309 309 309 309 309 310 310 312 313 314 315 314 314 317 323 328 331 334 336 335 335 336 336 336 335 335 337 336 334 335 335 335 335 335 336 335 334 334 333 334 334 334 334 334 333 332 331 331 331 330 330 329 329 329 327 325 322 321 323 324 323 322
316 315 315 314 313 315 314 312 312 310 310 312 312 312 312 310 309 311 312 313 314 310 307 307 307 307 306 306 307 307 307 307 307 307 307 308 308 308 308 309 309 310 311 312 313 314 315 313 313 316 323 328 332 334 335 335 335 336 337 335 336 338 338 337 337 336 335 335 334 335 335 334 335 335 335 334 334 334 334 333 332 332 331 330 329 330 330 329 329 327 325 323 321 323 324 322 322
316 315 313 313 313 314 314 312 312 310 310 312 312 311 310 310 311 310 310 310 309 306 306 306 305 305 305 305 306 306 306 306 306 305 306 306 307 307 307 308 308 309 310 312 312 313 315 314 313 312 317 326 330 331 333 334 334 335 335 335 335 336 337 337 337 335 334 333 333 334 333 333 335 336 336 334 334 334 333 332 331 331 331 331 329 329 330 329 329 327 325 324 323 324 324 322 321
315 315 313 313 311 313 313 311 310 309 311 311 309 309 310 312 311 308 307 307 305 305 305 305 305 305 305 305 305 305 305 305 305 305 305 305 305 306 306 306 307 308 309 312 313 314 315 314 314 311 313 324 329 330 332 332 333 334 333 333 333 334 335 335 334 334 333 333 333 334 335 334 334 336 336 334 333 333 333 332 329 329 330 331 330 330 330 329 329 327 325 324 325 324 323 322 321
314 315 313 312 310 312 312 309 309 309 309 309 307 309 311 311 310 308 306 306 305 305 305 305 305 305 305 304 304 305 304 304 304 304 305 304 304 305 306 306 306 307 308 312 316 316 316 315 316 314 314 323 328 329 331 331 332 334 333 332 331 331 333 333 332 332 332 333 333 333 334 334 333 333 335 334 332 332 334 333 329 329 330 330 330 330 330 330 329 327 326 325 326 325 323 322 321
313 313 313 312 311 311 310 310 310 309 308 308 309 312 310 307 308 307 304 305 305 304 304 304 305 304 303 303 303 304 304 304 304 304 304 304 304 305 305 305 306 306 309 314 317 317 317 317 317 317 317 323 327 329 330 332 332 332 331 331 330 330 332 332 331 332 333 333 333 332 332 333 333 332 334 334 332 331 333 333 330 329 330 330 330 330 329 329 328 328 326 325 326 325 324 323 321
311 311 311 311 311 310 309 310 310 308 308 308 310 313 309 306 308 309 305 304 305 305 305 303 304 304 302 302 303 303 303 302 302 303 303 303 303 304 304 304 304 306 310 315 316 317 319 319 319 319 320 325 327 328 329 331 332 332 332 331 331 331 332 332 331 332 331 331 331 331 332 332 333 332 333 334 332 332 332 331 330 330 330 329 329 329 329 328 328 327 326 326 326 325 324 323 321
309 309 312 312 311 311 310 310 309 309 309 307 309 311 308 308 309 309 306 304 305 305 305 303 303 303 302 302 302 303 302 302 302 302 302 302 302 302 302 302 303 306 309 313 316 318 320 321 321 320 323 327 328 328 329 331 332 332 332 330 330 330 329 329 329 329 328 329 329 329 330 330 331 331 332 332 332 332 331 331 330 330 330 328 328 328 328 328 327 326 325 326 325 324 324 322 321
308 309 314 314 314 314 311 309 308 309 309 306 308 311 310 310 309 306 305 304 305 306 305 304 303 302 302 302 302 302 302 301 301 301 301 300 300 300 301 301 301 306 310 313 317 319 321 322 323 323 325 329 328 328 329 329 329 330 329 328 328 327 327 326 326 326 326 327 328 328 328 329 329 330 331 331 331 330 329 330 330 329 329 329 329 327 326 326 325 325 325 324 324 323 323 322 322
310 310 313 315 316 316 311 309 308 310 309 305 309 314 313 310 308 307 305 304 305 307 306 304 303 302 302 302 302 302 301 301 300 300 299 299 300 299 300 301 301 305 310 313 317 318 320 321 322 325 326 327 327 327 327 327 326 326 326 326 326 326 325 324 324 323 323 325 326 326 327 327 328 328 329 329 328 328 328 328 328 327 327 328 329 327 325 324 324 324 324 323 323 322 321 321 321
312 312 312 315 316 315 312 309 310 312 309 305 310 315 314 311 308 307 305 303 305 307 306 304 303 302 301 301 301 301 301 301 299 299 298 298 299 299 299 300 302 306 309 311 314 317 320 319 320 324 325 324 324 325 325 325 325 324 324 324 323 324 323 322 322 322 322 323 324 324 324 325 326 326 326 327 327 326 326 325 325 324 324 325 326 325 324 324 324 323 322 322 321 320 320 320 320
313 314 315 316 315 315 314 309 308 312 309 307 312 315 315 311 308 307 304 304 306 307 305 303 302 301 301 301 301 301 301 301 300 298 298 298 298 298 298 299 302 307 309 310 313 315 318 318 319 322 324 323 322 323 323 323 322 322 322 322 321 322 322 321 320 320 320 321 322 321 321 322 323 324 324 324 325 324 324 323 323 322 322 323 324 323 323 322 322 322 321 321 320 319 319 318 318
314 314 317 318 316 316 315 310 308 310 310 310 312 314 316 311 308 306 304 305 306 306 304 302 302 301 301 301 300 300 301 301 300 298 297 297 297 297 297 299 302 307 309 309 312 314 315 317 319 320 320 320 320 320 320 320 320 319 319 319 318 318 318 318 317 317 318 318 318 318 318 320 320 321 321 322 323 322 321 321 320 319 320 321 321 321 321 320 319 320 320 320 319 319 318 317 317
316 315 316 316 315 314 315 313 310 308 311 313 312 314 315 311 307 306 304 304 306 306 304 302 302 301 300 300 300 300 300 299 299 298 297 296 297 296 297 299 302 306 308 309 311 312 313 315 317 317 317 317 318 318 317 316 315 315 315 314 314 313 313 313 312 313 314 314 315 315 316 316 317 317 317 318 319 319 319 317 317 317 317 317 317 317 316 316 316 317 317 317 316 316 316 316 316
317 317 316 315 314 313 314 314 311 310 312 314 313 314 315 311 307 306 304 303 305 305 303 302 301 300 300 300 300 299 299 298 297 297 296 296 296 296 297 299 302 305 307 308 311 311 312 313 314 316 316 315 316 316 314 313 313 312 311 311 311 309 308 308 308 309 309 310 310 311 312 312 313 314 313 314 315 316 315 314 314 314 315 315 315 314 314 314 314 314 314 314 313 313 312 313 313
317 317 316 316 315 315 314 313 310 310 313 314 314 314 316 314 309 306 304 303 305 304 302 302 301 300 300 300 300 299 298 298 297 296 295 295 296 296 297 298 300 303 305 307 310 311 311 312 313 314 313 312 314 315 313 313 312 310 309 309 307 305 305 305 304 305 305 306 306 306 307 308 309 309 309 310 310 311 311 310 311 311 312 312 312 312 312 312 312 312 312 312 312 311 310 310 310
315 316 316 315 316 317 315 313 309 308 312 314 314 314 315 315 311 306 304 304 304 304 303 303 301 301 300 300 299 299 298 297 297 296 295 295 295 296 297 297 298 301 304 307 309 310 309 309 310 310 309 310 312 312 312 311 309 308 307 305 303 301 302 302 301 302 302 303 303 303 304 304 305 305 306 306 306 306 306 306 307 307 307 308 308 308 308 308 309 309 310 309 309 309 308 307 307
314 315 316 316 316 316 314 312 309 307 311 314 312 312 314 314 310 305 304 305 305 304 303 302 301 300 300 299 299 298 297 297 297 297 296 296 295 295 296 296 297 299 301 305 307 307 307 308 308 306 306 308 309 309 309 309 306 305 305 302 301 300 299 300 300 300 300 300 301 301 301 301 302 302 302 302 302 302 302 302 302 302 303 303 303 303 303 304 304 305 306 306 307 305 304 304 304
313 314 315 316 316 316 314 311 308 308 311 314 312 311 315 314 308 304 304 304 303 301 302 301 300 300 299 299 298 298 297 297 297 297 296 296 295 295 295 295 296 297 299 302 304 304 305 306 306 305 306 308 308 307 307 306 303 303 303 301 300 299 297 297 298 298 298 299 299 299 299 299 299 299 299 299 299 299 299 299 298 299 299 299 299 299 299 300 300 301 301 303 304 304 302 301 300
314 314 315 317 316 317 318 313 309 308 309 312 311 312 315 313 307 304 303 302 301 299 299 299 299 299 299 298 297 297 298 297 297 297 296 296 295 295 295 294 296 297 298 300 302 304 305 306 306 307 308 308 307 306 305 304 303 302 301 299 298 297 295 295 296 295 295 296 296 296 296 297 297 297 297 297 297 297 297 297 297 297 297 297 297 297 297 297 297 298 299 300 302 303 302 301 299
314 314 315 318 316 316 317 314 310 309 309 309 311 314 317 314 311 308 303 300 300 299 298 298 298 298 297 296 296 296 296 296 296 296 296 296 295 294 294 294 294 296 297 299 300 303 304 305 308 308 308 307 305 305 303 301 300 299 297 296 295 294 293 292 292 291 291 291 291 291 291 292 292 292 292 293 293 293 293 293 293 294 294 294 294 294 294 295 295 296 297 297 298 300 301 300 299
317 315 314 315 316 315 314 313 312 314 315 311 311 319 320 314 312 310 305 302 302 300 299 299 298 297 297 297 297 296 295 295 295 295 295 295 295 294 293 293 293 294 295 296 298 300 302 303 306 306 306 305 304 304 302 300 298 296 295 294 293 292 291 290 290 289 288 288 288 288 288 288 288 288 288 288 289 289 289 289 289 289 290 290 290 290 290 291 292 292 293 294 295 297 299 299 299
319 317 314 313 314 314 314 313 314 317 319 311 309 318 321 315 314 311 306 305 304 302 301 300 299 298 298 298 297 296 295 295 295 294 294 294 294 294 293 292 292 292 293 294 295 297 299 301 302 303 303 302 301 301 301 300 298 297 296 293 291 290 290 289 288 288 287 287 287 287 287 287 287 287 287 287 287 287 287 287 287 287 287 287 287 288 287 288 288 288 289 289 290 292 295 296 296
320 316 313 312 313 314 314 314 315 316 316 312 309 314 317 317 315 309 305 306 305 303 303 301 300 298 298 297 296 296 295 295 295 294 294 294 293 293 292 291 291 291 292 292 293 295 297 299 300 300 300 299 299 299 299 298 297 296 294 291 289 289 289 288 287 287 287 287 286 286 286 286 286 287 287 287 287 287 287 287 287 287 287 287 287 287 287 287 287 287 287 287 287 287 289 291 292
318 311 310 311 312 314 314 314 315 314 314 316 314 313 315 318 315 307 305 308 307 306 304 303 300 299 298 297 296 296 295 294 294 294 294 293 292 292 291 290 290 290 291 291 292 294 295 297 298 298 298 297 297 297 297 296 295 293 291 289 288 288 288 288 287 287 286 286 286 286 286 286 286 286 286 286 286 286 286 286 286 286 286 286 286 286 286 286 286 286 286 286 286 286 286 288 289
312 308 309 310 310 312 312 314 314 312 314 319 318 314 316 319 317 312 309 310 311 308 306 304 301 299 298 297 296 296 294 294 294 294 293 292 291 290 290 289 289 289 290 290 292 292 293 294 295 296 295 294 294 295 294 293 292 291 289 288 288 288 288 288 287 287 287 286 286 286 286 286 285 285 285 286 286 286 285 285 285 285 285 285 285 285 285 285 285 285 285 285 285 285 285 285 286
309 310 312 311 311 311 311 312 312 314 317 318 316 314 316 318 319 317 314 312 311 310 307 304 301 299 299 298 297 296 295 294 293 293 292 291 290 289 289 289 289 288 289 289 290 291 291 292 293 293 292 291 292 292 291 291 290 289 289 288 288 288 288 288 287 287 287 287 286 286 286 285 285 285 285 285 285 285 285 285 285 285 285 285 285 285 285 285 285 285 285 285 285 285 284 284 284
310 313 314 315 314 312 313 312 312 317 320 315 310 311 314 317 318 316 314 310 308 309 308 304 302 300 299 298 297 296 295 294 293 293 292 291 290 289 289 289 288 288 288 289 289 290 290 290 291 291 290 290 290 290 290 289 289 289 288 288 288 288 288 288 287 287 287 287 287 286 286 286 285 285 285 285 285 285 285 285 285 285 285 285 284 284 284 284 284 284 284 284 284 284 284 284 284
311 313 314 318 318 315 317 317 315 318 318 310 307 309 313 316 317 314 312 309 306 306 307 304 302 301 299 298 297 296 295 294 292 292 292 291 291 290 289 289 289 288 288 288 288 289 289 289 290 290 289 289 289 289 289 289 288 288 288 288 288 288 288 288 287 287 287 287 287 287 286 286 286 285 285 285 285 285 285 285 285 285 285 284 284 284 284 284 284 284 284 284 284 284 284 284 284
311 314 316 320 320 319 321 319 316 317 315 308 307 310 314 316 315 312 310 307 303 302 302 303 303 301 300 298 297 296 294 293 292 292 292 291 291 290 290 289 289 289 288 288 288 288 289 288 289 289 289 288 289 289 288 288 288 288 288 288 288 288 288 288 288 287 287 287 287 287 286 286 286 285 285 285 285 285 285 285 285 285 284 284 284 284 284 284 284 283 283 283 283 283 283 283 283
312 313 316 318 318 320 322 320 318 318 314 309 308 312 316 317 313 306 303 301 299 299 298 300 302 301 300 298 296 295 294 293 293 292 292 291 290 290 289 289 289 289 288 288 288 288 288 289 289 289 289 288 289 288 288 288 288 288 288 288 288 288 288 288 288 288 287 287 287 287 286 286 285 285 285 284 284 285 285 284 284 284 284 284 283 283 283 283 283 283 283 283 283 283 283 283 282
311 310 313 316 316 316 315 314 314 312 312 311 310 313 315 314 308 300 299 299 298 298 298 298 300 300 298 298 296 295 294 293 292 291 292 291 290 290 289 289 289 288 288 288 288 288 288 288 289 289 289 288 288 288 288 288 288 288 288 288 289 288 288 288 288 288 288 287 287 286 286 285 285 284 284 284 284 284 284 284 284 283 283 283 283 283 283 283 283 283 282 282 282 282 282 282 282
311 310 314 314 313 314 312 311 308 309 315 316 313 314 313 311 310 302 299 301 299 298 298 299 300 299 298 298 297 296 295 294 293 292 292 291 290 289 289 289 289 288 288 288 288 288 289 289 289 289 288 288 288 288 288 288 288 289 288 288 288 288 288 288 288 288 288 287 287 286 286 285 285 285 284 284 284 284 283 283 283 283 282 282 282 282 282 282 282 282 282 282 282 282 282 282 281
311 313 315 312 311 313 313 315 313 312 318 317 313 315 315 314 314 307 302 304 303 300 299 299 299 298 298 298 297 296 295 294 293 292 292 291 290 290 289 289 289 288 288 288 288 288 288 288 289 288 288 288 288 288 288 288 288 288 288 288 288 288 288 288 288 288 288 287 287 286 285 285 285 284 284 284 283 283 283 283 283 282 282 282 282 282 282 282 282 281 281 281 281 281 281 281 281
310 312 313 313 315 316 314 316 318 317 319 317 313 313 313 315 316 311 308 307 306 302 300 299 299 298 298 298 298 296 295 294 293 292 292 291 290 290 289 289 288 288 288 288 288 288 288 288 288 288 288 288 288 288 288 288 288 288 288 288 288 288 288 287 287 287 287 287 286 285 285 284 284 284 283 283 283 283 282 282 282 282 282 281 281 281 281 281 281 281 281 281 281 281 281 280 280
308 309 310 311 314 316 315 315 316 318 319 317 315 313 313 315 315 313 312 310 308 304 300 300 301 300 299 299 298 297 295 295 293 292 292 292 291 290 289 289 288 288 287 287 287 288 288 288 288 288 288 288 288 288 288 288 288 288 288 287 287 287 287 287 287 287 286 286 285 285 284 284 283 283 283 282 282 282 282 282 281 281 281 281 281 281 281 281 280 280 280 280 280 280 280 280 280
309 311 312 311 311 312 313 313 312 315 317 317 317 317 316 312 311 313 313 311 309 306 302 302 302 300 299 299 299 298 296 295 294 293 292 292 290 290 289 289 288 288 287 287 287 287 287 288 288 288 288 288 288 288 288 288 287 287 287 287 287 287 287 287 287 286 286 285 284 284 283 283 282 282 282 282 281 281 281 281 280 280 280 280 280 280 280 280 280 280 280 280 280 279 279 279 278
312 312 313 313 313 313 315 317 312 310 314 315 315 318 317 310 306 308 310 309 308 307 305 304 302 300 300 299 299 298 296 295 294 293 293 292 290 290 289 289 288 288 287 287 287 287 287 287 288 288 288 288 287 287 287 287 287 287 287 287 287 287 287 286 286 285 285 284 284 283 282 282 282 282 281 281 281 280 280 280 280 280 280 280 279 279 279 279 279 279 279 279 279 279 278 278 278
Wind_Speed
9 7 7 8 7 3 0 2 0 2 0 4 3 1 3 2 2 2 1 1 0 2 1 2 1 1 2 3 5 4 4 3 6 4 4 3 1 2 10 6 2 12 21 27 20 19 22 20 19 17 17 16 15 15 14 14 13 12 11 10 9 8 6 6 7 8 9 9 9 9 9 9 9 9 8 7 7 8 7 8 9 10 9 9 9 9 9 9 9 9 10 10 10 9 9 9 8
9 7 7 7 5 3 1 1 1 3 2 4 2 1 3 1 1 1 3 3 2 3 2 3 2 2 3 4 4 3 1 2 5 4 3 3 1 2 8 7 2 12 21 26 21 17 19 19 20 17 17 16 15 15 14 13 12 12 11 9 8 8 7 6 7 8 9 9 8 9 9 10 9 9 8 8 8 8 7 7 8 9 8 9 8 8 7 7 7 8 8 8 8 7 7 7 7
9 6 7 5 3 2 1 1 1 3 2 4 3 2 1 0 2 4 4 3 4 3 2 1 2 1 4 3 2 2 3 0 3 1 1 4 2 3 6 8 2 11 21 25 20 16 17 17 20 18 17 16 15 16 14 13 12 11 10 9 8 7 7 6 7 9 10 9 8 9 9 10 10 9 8 8 8 8 8 7 7 7 7 8 8 7 6 5 5 6 6 6 7 7 6 6 6
8 6 7 3 1 0 1 0 1 1 2 3 4 3 0 1 4 4 3 3 3 3 1 2 2 1 3 2 2 1 3 2 2 3 1 5 6 5 6 10 2 9 22 26 20 16 16 17 21 19 17 16 16 16 14 13 11 10 10 9 8 7 7 7 7 9 9 8 9 9 9 9 9 9 8 7 8 8 8 7 6 6 6 6 7 6 6 6 5 4 5 5 6 8 7 7 6
6 7 6 2 2 1 0 1 1 0 2 2 3 4 1 1 3 3 4 3 1 2 1 2 0 2 2 2 3 1 4 2 3 4 1 5 8 5 6 9 2 9 21 25 21 16 15 19 22 20 18 17 16 15 14 13 12 11 10 9 8 7 7 7 7 9 9 8 9 8 8 8 9 8 7 7 7 8 8 7 6 6 6 6 6 6 6 6 6 3 3 5 7 10 10 8 8
5 4 6 3 1 1 1 2 2 2 3 2 4 5 2 2 3 4 4 2 1 1 1 2 2 1 1 1 2 2 5 4 3 4 3 5 8 2 8 6 2 10 19 23 21 15 13 19 22 20 18 17 16 15 14 13 12 12 11 10 8 7 7 6 7 9 9 9 9 8 8 8 8 7 6 7 8 7 7 7 6 6 6 6 7 7 6 6 5 3 4 9 12 13 13 11 10
4 2 3 3 2 1 1 3 3 4 3 3 3 3 3 3 3 5 2 1 2 2 1 0 3 3 1 1 1 0 4 5 5 6 8 8 6 2 8 6 3 10 18 20 21 14 12 19 21 19 18 17 15 14 14 13 13 12 11 10 9 7 7 7 7 9 9 9 9 8 8 8 7 6 5 6 8 7 7 6 6 5 6 7 6 6 6 6 5 6 10 14 15 15 15 14 12
5 2 1 0 1 1 1 3 3 2 2 1 3 2 3 4 3 3 1 1 1 1 1 1 2 2 3 1 1 4 5 9 8 8 9 6 3 4 8 6 5 11 16 18 20 15 12 19 21 19 18 17 15 14 14 14 13 12 11 10 9 7 7 7 7 9 9 8 8 8 8 8 8 6 5 6 8 7 7 6 6 5 5 5 4 5 6 6 5 10 15 15 16 16 16 16 14
4 3 1 1 1 1 2 3 2 2 1 0 2 3 3 3 2 3 2 2 1 2 2 2 3 2 2 1 2 5 6 14 10 8 9 4 3 4 7 6 5 10 15 15 18 14 11 18 21 19 18 17 16 14 13 14 13 12 11 10 9 7 7 7 7 9 9 8 8 7 7 7 8 6 5 6 7 6 6 6 6 5 5 4 3 4 4 6 8 12 16 16 16 16 17 17 15
2 3 0 1 1 2 3 2 2 2 2 0 2 3 3 1 2 3 2 2 1 2 3 2 2 3 3 1 4 3 7 16 11 11 12 6 4 4 5 5 5 7 11 11 11 10 9 17 21 19 18 17 16 15 13 13 13 12 11 10 10 8 7 7 7 9 9 9 8 8 7 6 8 7 5 6 7 6 6 6 6 5 5 4 2 3 5 8 10 13 16 17 16 16 17 17 15
1 2 0 1 2 3 3 3 3 3 3 1 1 2 2 1 3 2 1 1 0 2 2 1 1 3 2 2 4 3 8 18 17 15 13 9 6 3 4 5 4 3 6 6 6 6 7 14 20 20 19 17 17 16 14 13 12 13 12 11 11 8 8 6 6 9 9 9 8 8 7 7 7 7 6 6 6 6 6 6 6 5 4 3 2 3 7 9 11 14 16 17 16 17 17 17 14
1 1 1 2 2 2 2 3 3 4 4 3 3 2 1 2 3 1 1 1 0 1 2 0 2 3 2 3 3 4 10 20 20 15 12 10 7 4 3 4 3 1 2 4 6 6 6 9 16 19 19 18 17 17 15 14 13 13 12 12 11 9 8 7 6 9 10 10 9 9 8 7 6 6 6 6 6 6 6 6 6 4 3 2 2 5 8 10 12 14 16 17 17 17 18 16 13
1 1 2 2 0 0 2 2 3 3 4 3 3 2 1 2 1 3 2 1 1 0 3 2 2 2 3 1 3 3 9 19 18 13 11 9 8 6 3 2 2 1 1 3 4 6 7 7 10 15 18 19 18 17 17 16 15 13 13 12 11 10 9 7 6 8 10 10 9 9 9 8 6 5 5 5 5 6 6 6 5 4 3 2 3 6 8 11 12 14 16 17 17 18 18 14 11
1 0 1 1 1 0 2 1 3 4 4 4 2 2 2 1 3 3 3 2 2 3 3 1 2 3 2 1 2 3 9 19 17 11 9 8 7 6 4 2 1 1 0 1 2 3 5 6 7 11 16 17 17 17 17 18 17 15 14 13 13 12 10 8 6 7 10 11 10 10 9 9 7 6 5 5 5 6 5 5 5 4 3 1 5 7 8 10 12 14 15 16 17 19 18 13 10
0 1 1 3 2 1 2 0 3 4 4 5 1 4 2 1 1 1 1 4 3 4 1 1 1 3 2 2 2 5 13 18 13 9 7 6 6 5 6 5 4 2 1 1 1 2 3 6 6 8 12 14 15 15 16 17 17 17 16 14 13 13 12 10 7 7 10 12 11 10 10 9 8 6 5 5 6 6 5 6 6 3 1 2 5 6 8 9 11 13 14 14 16 18 19 14 9
0 1 1 2 2 2 3 1 2 4 4 4 1 3 2 2 1 1 2 4 3 2 3 1 1 3 5 4 5 9 14 12 9 7 5 5 6 6 7 7 6 5 2 1 2 3 5 6 7 7 9 12 13 13 14 15 17 17 17 16 14 13 13 12 9 7 9 12 12 11 10 9 9 8 6 6 7 7 6 6 5 4 2 2 5 5 7 8 9 12 13 13 15 17 19 15 10
1 1 1 2 2 2 3 5 3 2 4 4 2 1 2 1 1 0 1 2 4 2 4 2 5 6 6 4 5 9 11 11 8 5 6 8 7 6 7 9 8 6 4 2 1 3 6 7 8 8 8 10 12 12 13 14 16 17 17 16 15 14 13 13 11 9 9 11 12 11 11 10 10 9 8 7 7 7 7 6 5 5 3 2 4 5 5 6 7 11 12 12 14 15 17 17 13
1 1 0 1 1 1 3 5 3 1 3 4 2 0 2 2 2 1 1 4 2 4 2 3 9 10 9 7 6 8 10 13 12 11 12 12 10 8 9 10 10 9 7 4 2 3 5 7 8 8 7 9 10 11 11 12 15 17 17 15 15 15 14 13 11 11 10 11 12 12 11 10 11 10 9 8 7 7 8 7 6 6 5 4 4 4 4 5 7 11 12 11 14 14 16 18 15
1 0 0 1 2 2 1 3 3 1 2 2 2 1 2 2 2 3 4 2 2 4 1 5 8 8 9 10 10 11 12 14 15 15 15 14 12 11 10 10 10 10 11 8 5 4 5 7 8 7 7 8 9 10 10 10 12 15 17 15 15 14 14 13 12 11 11 12 13 13 12 11 11 10 11 10 8 8 9 9 6 7 7 5 5 6 6 6 8 12 12 10 13 14 14 16 17
0 1 1 2 2 1 1 2 2 1 1 1 1 2 2 1 1 3 6 8 5 2 4 2 2 4 8 9 11 12 12 14 15 14 15 14 12 11 10 10 10 11 12 11 9 6 6 8 10 9 7 8 9 10 10 9 9 12 14 14 15 13 13 13 12 13 12 12 13 13 12 12 11 10 10 11 11 9 9 9 6 6 8 8 7 7 8 7 8 10 11 10 12 13 13 15 16
1 1 1 4 1 2 3 3 1 1 1 2 0 1 2 1 1 3 4 7 2 4 6 5 4 6 6 7 10 11 12 13 14 15 14 14 13 11 10 10 10 10 12 11 10 9 6 7 10 11 9 8 9 9 9 9 8 9 9 11 14 13 12 11 11 11 12 12 12 13 14 13 13 12 10 11 11 9 10 11 8 7 7 8 9 7 7 6 6 7 8 10 11 11 12 14 15
1 1 3 4 1 1 4 3 1 2 2 1 2 2 0 2 1 3 4 5 2 3 6 6 5 5 6 7 8 9 12 13 14 15 14 13 13 12 11 11 10 11 12 12 12 10 7 6 9 12 11 8 8 10 9 9 8 7 8 9 11 12 12 12 12 10 9 10 10 12 13 13 13 13 11 10 10 9 10 10 9 9 8 7 9 7 8 7 4 4 6 9 9 9 9 12 13
1 1 1 1 2 1 3 4 3 4 3 3 2 1 1 3 2 1 2 2 4 4 4 5 5 5 5 6 8 10 11 12 13 13 13 13 13 13 13 12 12 12 12 13 13 10 9 7 6 9 12 8 7 10 10 9 9 7 8 7 8 10 11 10 9 8 8 9 9 11 12 11 11 12 12 11 10 11 11 9 9 10 9 8 8 9 9 10 6 4 4 7 8 7 7 9 11
2 1 2 1 2 3 1 3 3 5 5 2 1 0 3 4 2 2 2 3 4 4 4 4 5 5 6 8 10 10 10 11 11 11 10 10 11 12 12 11 11 12 12 14 13 11 11 8 4 4 10 8 5 8 9 10 9 8 8 7 6 7 9 8 5 5 7 8 9 10 12 12 10 11 13 12 10 12 12 10 9 10 11 10 10 12 12 12 9 5 4 5 6 6 7 8 9
2 0 2 1 2 4 2 2 4 6 5 2 2 4 4 2 2 4 3 4 3 3 4 3 4 6 8 9 10 10 10 11 10 10 10 9 9 10 11 12 11 12 14 15 15 14 13 9 6 1 7 7 5 6 7 8 8 7 8 7 6 4 4 5 4 5 6 6 6 7 9 11 11 11 14 16 13 12 12 10 9 9 12 12 12 14 14 13 11 8 5 5 4 5 5 6 8
1 0 0 2 2 3 3 5 5 4 3 3 4 4 1 1 2 4 3 3 3 3 4 4 5 8 9 9 10 10 11 11 11 10 10 9 9 11 13 13 13 14 16 15 15 15 13 11 7 3 6 6 6 6 6 6 5 5 6 5 4 3 2 2 0 3 5 4 3 3 4 7 10 10 13 17 16 14 11 9 8 8 9 11 11 12 14 13 12 12 7 6 4 4 5 5 7
1 1 2 4 3 3 3 4 3 2 2 5 6 3 3 2 2 2 3 3 3 3 5 6 6 8 8 7 8 9 9 10 10 9 10 11 11 13 14 15 15 15 16 16 16 15 13 12 9 5 6 10 9 7 7 6 4 4 5 6 5 5 4 4 4 3 3 1 0 1 1 3 6 6 8 12 14 13 10 7 8 7 6 7 8 8 11 12 13 15 10 7 5 4 5 4 6
1 1 4 5 4 4 3 4 3 1 2 4 5 2 4 2 2 1 4 3 3 3 5 6 6 6 6 6 6 6 8 8 9 10 12 13 12 13 14 15 16 16 16 17 16 15 13 13 12 10 9 11 11 11 11 8 7 6 6 9 8 6 7 7 7 6 4 3 3 0 1 1 2 4 5 8 11 10 7 8 9 8 6 6 6 7 10 12 14 15 10 7 5 5 5 4 5
1 1 5 5 5 4 0 1 1 1 1 2 4 4 4 4 3 3 3 2 3 3 4 5 5 5 5 5 5 6 8 9 10 11 12 11 11 11 12 13 15 15 16 16 16 15 14 14 14 13 12 11 13 14 13 13 13 11 10 12 11 8 9 11 11 10 8 7 6 4 3 3 3 1 3 5 6 5 4 7 8 8 7 6 5 6 9 10 12 11 8 6 5 6 6 5 5
1 1 3 6 6 2 2 1 2 1 1 2 3 3 3 6 5 3 2 3 5 3 4 4 4 4 4 4 4 6 8 9 10 11 10 10 10 10 12 13 14 14 15 16 16 17 17 17 16 14 14 16 17 16 15 17 17 16 16 16 15 13 13 14 14 13 11 10 9 8 7 7 6 5 2 1 1 1 1 2 1 2 3 3 5 5 5 6 7 7 6 6 6 6 6 6 5
1 1 1 2 4 1 4 1 3 2 1 2 5 4 1 8 5 4 3 3 6 3 4 4 4 4 4 4 4 5 7 8 9 10 11 11 10 10 11 13 13 14 15 16 17 18 18 19 19 18 17 20 22 20 20 20 20 20 19 19 19 17 16 18 19 17 15 14 11 11 12 10 8 7 6 4 4 5 4 5 5 4 5 3 3 2 2 3 4 5 5 5 4 4 5 6 6
1 3 3 2 2 1 3 2 2 1 1 1 5 4 1 8 5 4 4 1 4 3 4 4 4 4 3 3 3 4 5 7 8 10 11 11 11 11 11 13 13 14 15 16 17 20 21 22 23 23 22 23 25 26 26 25 25 25 24 23 24 22 21 23 24 22 21 19 17 17 17 14 11 10 9 7 6 8 8 9 9 8 7 5 3 2 2 2 3 4 4 4 4 5 5 5 6
1 3 4 2 3 3 0 3 1 2 0 1 3 4 0 6 5 4 3 0 3 4 4 4 3 3 3 3 3 3 3 5 7 10 12 11 11 11 11 12 13 14 15 16 19 21 23 24 26 28 28 29 29 28 29 28 28 29 28 28 28 27 26 27 27 26 25 23 23 23 22 19 17 15 13 12 10 10 11 11 11 10 9 7 6 5 3 4 4 4 4 5 5 6 6 6 7
2 2 4 3 3 4 2 2 2 1 3 2 1 5 4 5 6 2 3 1 3 5 4 3 3 2 2 2 2 2 3 4 6 9 11 10 10 10 10 11 13 14 16 18 20 22 23 25 27 29 31 32 31 31 31 32 31 31 31 31 30 30 30 29 29 28 27 26 25 25 24 22 21 20 19 18 16 14 14 14 14 13 12 11 10 10 9 9 7 6 5 5 4 4 4 5 6
3 4 4 3 3 5 4 2 1 1 3 4 2 6 7 5 7 3 3 2 3 5 4 3 3 2 2 2 2 2 3 4 5 7 9 9 9 9 9 12 14 15 16 18 21 23 25 26 26 29 32 32 31 32 33 34 33 32 32 31 31 31 30 29 29 28 27 26 26 25 24 23 22 22 21 21 20 18 17 17 17 15 14 13 13 13 13 11 10 9 9 8 7 7 6 5 5
2 3 3 4 5 6 4 1 1 1 3 7 7 9 10 6 7 5 3 3 3 4 4 3 2 2 2 2 1 2 3 4 4 6 7 7 8 8 10 12 14 15 17 19 20 22 25 26 27 29 31 32 31 31 32 33 33 33 32 32 32 32 30 29 30 29 27 26 25 24 24 23 22 21 21 21 21 19 19 18 18 16 15 14 14 14 14 13 12 11 10 10 9 8 7 8 8
1 2 3 5 6 7 3 3 2 1 3 7 7 8 12 9 4 6 4 4 4 4 4 3 3 2 2 2 2 2 3 3 3 4 6 7 7 8 11 12 12 15 18 19 20 22 23 25 26 26 27 29 29 29 29 30 31 31 31 32 33 32 30 30 30 28 27 26 24 24 24 22 21 20 20 20 20 19 19 18 17 17 16 15 15 15 14 13 12 10 10 9 9 8 9 10 11
3 4 4 5 7 8 3 2 2 1 3 5 3 6 12 9 3 6 4 5 5 3 4 3 3 3 2 2 2 2 2 2 2 4 5 6 7 8 10 11 13 16 19 20 21 21 22 23 24 23 23 26 27 27 27 28 29 29 30 32 32 32 31 31 31 29 27 26 25 25 25 23 22 22 22 21 21 20 20 20 19 18 18 17 17 16 15 14 13 12 11 9 8 9 10 12 13
4 4 4 5 5 5 3 2 3 2 4 3 2 5 10 5 4 4 4 4 3 1 2 2 2 3 3 2 2 2 2 2 3 4 5 5 7 7 8 10 14 17 19 21 22 22 22 23 23 23 23 25 25 25 26 27 28 28 29 30 30 31 32 32 31 30 28 28 28 27 26 25 25 24 24 23 23 22 22 22 21 20 20 19 18 18 18 18 17 16 14 10 7 7 9 12 14
6 5 5 7 3 2 5 1 3 2 2 2 1 5 9 4 3 4 3 3 3 3 2 2 1 2 2 2 1 2 3 3 3 3 4 4 5 7 8 10 13 16 19 21 22 23 23 24 24 24 24 24 25 24 24 25 26 27 29 31 32 33 33 33 33 32 31 30 30 29 28 27 26 26 25 25 24 23 23 23 22 22 22 21 20 21 21 21 20 19 17 14 10 8 8 11 14
7 7 8 8 5 7 7 1 2 2 2 2 2 7 8 6 6 4 4 4 4 4 4 4 3 3 3 3 2 2 2 2 3 3 3 4 5 7 8 8 11 14 17 19 21 23 25 25 25 25 25 25 25 25 26 27 27 27 28 28 29 30 29 29 30 30 31 32 31 31 30 29 29 29 28 28 27 27 26 26 25 24 24 24 24 23 23 22 21 20 19 18 15 11 9 10 11
6 8 12 12 10 8 5 2 1 4 4 3 3 6 4 4 6 5 4 5 5 4 5 5 5 5 5 5 4 3 2 2 2 2 2 4 5 6 7 8 10 12 14 16 18 21 23 25 26 26 26 26 26 26 26 27 27 24 22 21 21 21 22 22 22 24 27 30 31 31 31 30 30 30 30 29 28 28 27 27 27 26 26 26 26 25 24 24 23 23 22 21 19 15 10 10 11
5 4 8 12 10 6 5 5 4 4 3 1 1 6 4 2 4 5 5 5 5 5 5 6 5 5 5 5 4 4 4 3 3 2 3 4 5 6 7 8 9 10 12 15 17 18 21 23 25 25 26 26 26 26 25 26 27 26 25 26 23 20 20 19 21 24 27 29 30 30 30 29 29 29 29 28 28 27 27 26 26 25 25 25 25 25 24 24 23 23 23 22 22 20 15 12 13
3 1 2 7 8 7 8 8 6 4 2 0 3 4 5 4 2 4 5 5 5 7 7 7 7 6 6 5 5 5 5 4 4 4 4 4 5 6 6 7 7 10 13 16 18 19 21 22 23 24 24 25 25 25 25 26 28 29 31 33 30 25 24 23 24 27 28 29 30 30 29 28 28 28 27 27 26 26 25 25 24 24 24 24 24 23 23 22 21 21 21 22 21 21 19 14 12
0 2 2 4 4 5 7 6 5 2 1 4 6 4 4 6 3 4 4 5 7 9 10 10 9 9 8 7 7 6 6 5 4 4 4 4 4 5 6 6 7 10 14 17 20 22 23 23 24 25 25 26 26 26 27 28 30 32 33 34 33 29 27 25 26 27 28 28 29 28 28 27 26 26 25 25 24 24 24 23 23 22 22 22 22 21 21 20 20 20 20 20 20 20 19 16 13
3 5 6 7 5 4 4 4 3 2 3 8 7 9 5 5 4 4 3 5 8 9 10 10 11 10 9 9 9 7 6 5 4 4 4 4 4 4 5 6 8 12 16 18 21 23 24 25 26 27 28 28 29 28 29 29 31 33 34 34 33 29 26 26 26 26 26 26 27 26 26 25 25 24 24 23 23 22 22 21 21 21 21 20 20 19 19 18 18 18 18 18 17 17 17 16 14
7 7 6 7 5 4 3 1 1 2 6 6 5 9 7 5 4 6 4 2 3 8 10 10 11 11 11 9 9 9 7 6 6 5 5 4 4 4 5 7 9 13 17 19 22 24 25 26 28 29 29 29 30 29 29 31 31 32 33 33 32 30 28 27 26 25 24 24 24 23 23 23 23 22 22 21 21 21 20 20 20 20 19 19 19 18 18 18 17 17 17 16 16 16 15 15 14
4 4 5 5 3 2 2 2 2 5 6 2 1 3 6 6 4 4 3 2 2 7 10 13 15 13 12 10 9 9 8 7 7 6 7 7 6 6 6 7 9 12 15 19 22 24 26 27 28 30 30 29 30 30 30 31 31 32 31 31 30 29 28 27 26 25 24 23 22 21 20 21 21 20 20 20 20 19 19 19 19 19 19 19 19 18 18 18 17 17 17 16 16 16 16 15 15
3 4 7 6 3 3 4 3 3 6 3 2 2 1 4 7 6 3 3 4 3 3 4 11 17 15 13 12 10 9 8 8 8 6 7 8 8 9 9 9 10 10 13 18 22 25 26 27 28 31 30 30 30 30 30 30 30 30 29 29 28 28 27 27 26 25 23 22 21 20 20 19 19 19 19 19 18 18 18 18 18 18 18 18 18 18 17 17 17 17 17 17 17 17 17 16 15
7 8 8 7 5 4 5 4 2 4 1 2 1 1 3 4 5 3 2 4 3 2 1 5 13 15 14 13 11 9 8 8 7 7 7 9 10 10 10 11 11 11 13 17 21 24 27 27 29 31 30 30 30 29 29 29 28 28 27 27 27 26 26 26 25 24 23 21 21 21 20 19 19 18 18 17 17 16 17 17 17 17 17 17 17 17 18 18 17 17 18 18 17 17 17 17 16
7 4 3 5 4 4 4 3 3 2 2 2 1 2 4 3 1 2 3 4 3 2 2 1 6 10 10 10 9 9 9 8 7 7 8 10 11 11 11 11 11 12 14 17 21 24 27 28 29 31 30 29 28 28 28 27 27 26 25 25 25 25 25 24 23 22 21 20 20 19 19 18 17 17 16 16 15 15 15 15 16 16 16 16 17 17 17 17 17 17 18 18 18 18 18 18 17
3 1 1 4 3 2 0 1 0 2 1 2 3 3 3 2 2 2 2 2 2 2 1 3 6 8 9 9 9 9 9 9 8 8 9 10 11 11 11 11 12 13 15 18 22 25 28 29 29 29 29 28 27 27 27 26 26 25 24 23 23 22 22 22 21 20 19 19 18 18 17 16 16 15 15 14 15 15 15 15 15 15 16 16 16 17 17 17 17 17 17 18 18 18 19 18 18
4 3 5 3 1 2 2 0 2 1 4 3 4 4 3 1 2 2 3 1 3 3 3 6 8 9 10 9 9 9 9 9 9 8 9 12 12 12 12 12 13 14 16 19 23 26 28 29 29 29 28 27 26 26 25 25 24 23 22 21 21 20 20 19 19 18 17 16 16 16 15 15 14 14 14 14 14 14 14 15 15 15 16 17 17 18 18 18 19 18 18 18 19 19 19 18 18
5 5 5 3 1 1 1 3 1 2 6 3 4 7 5 4 3 2 4 5 6 7 6 7 8 10 11 11 10 10 9 9 9 9 11 13 13 13 13 13 14 16 17 20 24 27 29 29 29 29 28 26 25 24 24 23 22 21 20 19 18 18 17 17 16 15 14 14 14 14 13 13 13 12 13 12 12 13 13 14 14 15 16 16 17 17 18 19 19 19 19 19 19 20 20 19 18
1 2 2 2 3 4 3 3 2 3 6 3 4 6 6 7 5 3 7 10 10 10 9 9 12 13 13 12 11 11 10 10 10 10 11 12 14 14 14 15 15 17 17 20 25 28 28 28 27 27 26 25 24 22 22 20 19 19 19 17 16 15 15 14 13 12 11 11 11 11 11 11 11 10 10 10 11 12 12 13 14 14 15 16 16 17 17 18 18 18 18 18 19 20 20 19 18
1 1 2 0 3 3 3 3 1 3 5 3 3 3 4 7 7 8 12 12 12 13 10 12 15 16 14 12 12 12 12 11 11 10 11 13 15 15 16 16 16 18 19 22 26 27 27 28 27 26 25 24 22 21 20 19 18 17 16 15 14 13 12 11 10 9 9 9 9 9 9 10 9 9 10 10 10 11 12 12 13 14 15 15 16 17 17 18 18 18 18 18 19 20 20 19 19
5 6 6 4 2 0 1 2 1 1 4 3 4 4 3 4 3 7 9 8 11 14 13 13 14 15 14 12 12 12 11 12 11 10 11 14 15 15 15 15 15 18 21 24 26 25 26 27 27 26 25 24 22 21 19 18 17 15 14 13 12 11 10 9 8 7 7 8 8 8 8 8 8 8 9 9 10 10 11 12 13 13 14 15 16 17 18 18 19 19 19 19 20 20 20 19 19
5 7 9 8 6 4 4 5 2 0 3 2 3 6 3 3 1 1 1 0 5 10 11 10 11 14 14 13 13 12 11 11 11 10 11 13 15 15 14 14 15 18 21 23 24 24 25 27 27 26 25 24 23 21 19 18 17 15 13 12 10 9 8 7 6 6 6 7 7 7 7 8 8 9 10 10 11 12 13 13 14 15 15 16 17 17 18 18 18 19 19 20 20 20 20 19 19
Wind_Direction
345 343 344 346 355 323 268 332 191 100 345 102 78 109 101 12 330 301 123 123 214 84 324 321 298 277 305 317 342 343 320 336 9 3 52 61 353 354 190 188 175 168 171 174 168 174 173 170 174 174 176 175 175 174 174 172 169 169 165 162 155 151 152 144 145 141 136 135 136 133 131 128 125 123 121 117 116 112 106 107 106 106 100 95 93 93 95 97 96 91 86 79 75 70 68 65 59
346 344 344 349 3 323 153 309 251 122 139 113 89 35 67 275 256 35 62 44 34 46 338 308 261 261 292 288 294 280 285 301 347 0 55 17 345 12 195 184 145 168 172 175 169 172 175 175 176 176 179 177 177 177 178 175 172 170 164 162 155 153 155 151 153 147 143 140 140 139 135 134 130 128 128 123 123 121 117 114 112 111 106 104 102 98 98 101 100 91 83 72 62 54 49 43 40
348 347 342 340 9 354 153 254 216 137 137 109 100 92 42 229 74 41 37 18 11 350 306 272 241 250 254 228 277 295 62 53 324 328 83 5 10 10 202 188 175 171 175 176 170 172 177 181 178 178 181 180 180 180 181 178 177 176 167 164 157 155 155 148 149 149 146 146 147 143 142 141 135 134 133 130 130 129 126 122 117 117 117 111 105 104 99 90 88 82 72 59 44 32 21 8 360
353 350 339 295 214 59 218 238 119 150 124 110 107 114 277 11 52 32 17 354 334 311 277 247 213 142 276 307 0 313 36 71 54 348 30 30 6 341 206 192 216 175 179 179 173 171 177 188 181 179 183 182 185 184 184 181 181 182 174 169 161 158 155 147 149 153 149 151 153 145 147 145 142 140 138 138 136 137 135 131 127 125 122 112 106 101 91 73 64 64 60 49 33 19 10 1 348
357 3 7 274 231 28 281 90 105 186 97 106 110 111 91 352 17 9 354 358 336 278 280 283 337 101 267 337 327 330 28 49 66 4 11 35 4 343 186 185 214 177 180 181 177 172 183 193 182 180 185 184 187 187 188 185 186 187 181 177 168 162 159 154 154 155 151 155 155 146 148 147 147 147 147 147 146 150 145 140 140 134 120 111 100 85 77 63 49 58 59 26 5 358 355 354 352
358 12 43 60 117 15 215 146 147 111 66 30 97 101 67 19 348 334 324 23 112 224 280 298 350 323 173 88 286 333 4 328 355 12 354 348 353 13 170 173 164 174 178 182 181 175 191 194 181 182 187 186 188 191 192 188 190 190 187 185 176 172 169 161 158 157 152 154 152 150 153 150 153 154 157 155 153 154 148 147 147 136 120 108 95 80 64 53 51 53 21 4 355 351 350 346 345
353 334 52 68 108 286 231 123 125 110 68 349 45 72 46 29 337 322 305 137 140 168 218 353 327 285 100 53 248 1 355 347 339 334 328 326 348 111 166 162 146 174 179 184 185 181 198 194 182 185 189 189 190 195 196 191 194 193 191 190 184 182 177 166 164 164 160 160 155 157 161 157 161 159 162 165 163 157 149 150 146 135 120 113 105 83 59 61 61 23 6 2 358 356 355 352 347
2 355 265 310 101 19 107 116 102 83 79 323 335 331 353 6 317 309 358 52 37 54 355 76 293 282 85 313 332 85 39 9 343 329 338 342 20 146 166 158 147 175 180 184 188 187 200 193 185 189 192 191 193 200 201 197 198 199 197 196 191 188 183 173 170 171 169 171 162 161 166 168 171 160 148 160 168 163 153 153 151 141 126 119 103 69 61 69 47 12 6 3 359 357 356 355 354
14 14 234 234 106 103 122 129 101 62 79 268 293 281 306 342 282 294 0 67 8 323 353 9 299 331 49 252 81 89 29 10 359 3 14 35 66 144 163 155 148 177 183 184 190 192 199 193 190 193 195 195 197 204 206 204 205 205 203 202 200 196 191 180 177 178 176 177 170 167 169 178 181 163 143 146 159 163 158 159 152 141 134 125 89 55 50 43 23 11 8 2 357 355 353 354 355
18 23 223 141 138 154 148 148 122 111 90 9 294 296 304 318 242 273 322 65 31 317 24 0 282 349 356 91 78 81 17 17 25 22 20 38 68 127 155 151 142 173 185 185 187 190 196 196 197 197 199 200 201 207 209 208 211 211 207 208 207 204 203 189 182 188 187 182 176 178 175 186 189 173 157 149 154 164 167 164 155 145 131 107 60 21 23 23 18 13 9 2 357 355 353 354 357
290 47 327 185 176 177 169 161 134 103 99 142 221 288 312 295 235 215 275 51 91 300 54 188 258 0 322 104 77 91 35 21 20 14 16 29 43 88 139 144 135 157 183 189 186 186 194 199 202 202 203 203 204 210 213 209 212 216 213 214 210 205 211 202 196 196 196 191 185 188 186 195 198 184 172 164 162 165 174 171 158 147 121 87 39 19 24 22 18 15 10 4 359 357 355 356 1
252 83 258 206 178 180 157 149 129 103 122 145 115 90 335 263 246 105 299 346 37 250 107 318 349 346 273 122 107 105 45 18 8 4 14 24 35 61 117 137 140 148 183 196 192 192 192 197 204 207 209 207 206 211 217 216 213 218 217 218 213 208 217 215 213 207 203 201 195 195 198 208 208 196 181 175 175 170 175 170 157 139 125 117 73 45 28 20 17 15 11 8 4 1 357 358 3
1 96 234 185 70 100 129 137 126 122 138 128 78 66 292 258 329 30 328 320 332 288 79 13 327 291 280 90 129 119 36 12 360 1 12 19 34 45 75 125 146 138 188 199 197 197 197 197 203 209 214 213 211 212 218 221 217 219 220 220 218 216 222 222 223 217 210 208 205 203 210 219 214 203 193 187 186 180 178 168 163 148 140 131 65 43 25 18 16 13 11 10 7 4 0 359 7
1 55 285 130 67 117 139 137 147 174 149 117 45 356 265 257 10 0 311 328 36 33 40 24 285 277 286 298 130 90 2 357 358 10 18 22 37 43 56 66 96 113 157 168 185 195 203 206 203 208 215 216 216 218 221 224 221 219 221 219 219 221 224 226 230 224 218 217 212 209 215 226 225 209 199 203 199 187 185 175 174 162 142 88 43 30 19 14 11 10 9 11 8 7 5 4 11
2 147 32 116 137 165 180 169 155 189 149 114 40 329 286 149 6 273 327 339 21 58 326 214 248 292 355 332 2 9 337 345 3 22 28 36 52 58 56 53 61 67 103 141 197 205 213 212 214 212 212 215 216 220 222 227 227 221 223 221 218 221 225 228 234 230 225 223 218 217 219 229 235 227 210 209 210 200 194 184 180 180 152 29 12 8 6 4 4 4 6 12 8 8 9 9 12
33 168 139 136 155 188 187 162 164 187 141 110 82 303 282 137 179 254 62 325 313 62 318 288 148 327 18 14 348 339 333 352 18 31 47 57 63 65 57 56 56 50 59 99 216 220 228 221 222 220 213 214 215 221 222 227 231 225 224 225 222 220 222 224 229 232 229 227 224 223 224 231 238 242 231 216 218 209 198 191 183 195 215 336 335 339 344 345 353 357 5 15 8 7 10 12 12
255 234 197 147 170 195 177 169 174 146 121 122 118 295 311 62 170 163 107 262 282 312 319 0 78 45 47 52 350 337 348 17 36 53 58 47 46 45 39 40 42 35 34 40 252 228 228 227 226 227 224 219 215 220 224 227 233 230 226 227 227 220 219 220 221 226 228 229 230 228 230 232 232 237 235 225 226 214 202 199 190 202 226 286 313 320 327 333 345 353 4 19 11 6 10 12 12
258 238 218 161 156 148 174 167 155 93 102 121 108 1 318 333 332 3 227 196 244 289 299 78 91 85 78 63 17 5 14 29 41 49 47 37 29 25 23 21 23 19 13 11 322 262 236 231 229 233 234 226 219 219 224 228 232 234 228 226 230 226 222 224 225 226 225 226 230 230 228 231 232 231 231 227 226 221 210 200 198 210 221 243 279 290 304 323 331 344 357 15 14 4 7 11 12
306 152 316 143 126 95 155 140 137 160 66 85 111 157 274 330 342 341 317 279 305 310 11 108 119 99 64 41 24 22 24 31 37 41 44 37 25 21 16 9 13 10 4 2 344 299 261 242 230 234 239 233 224 218 221 226 230 234 230 224 229 230 227 229 230 228 225 226 230 230 228 230 232 230 232 231 227 233 219 201 210 216 217 239 260 272 283 298 312 334 353 13 15 3 3 9 11
318 235 299 99 113 115 189 184 164 175 31 322 121 145 255 323 311 312 323 309 308 32 40 69 114 34 27 27 20 19 26 32 33 38 42 36 28 22 12 6 4 359 358 360 354 331 293 260 239 231 233 233 227 219 218 221 227 234 234 230 229 230 231 235 235 231 228 231 234 232 229 229 230 229 231 231 228 234 219 205 224 226 223 238 242 255 263 277 307 333 358 19 17 4 2 6 7
161 286 17 89 133 175 163 198 195 159 240 288 52 197 242 93 297 292 307 302 303 86 33 6 4 13 19 22 17 18 27 30 30 33 36 32 27 22 13 5 357 352 355 359 355 342 313 275 250 233 225 226 225 220 217 218 223 230 234 233 232 230 230 237 237 234 234 239 244 239 235 235 236 235 232 232 230 229 216 212 224 225 225 235 234 235 238 258 304 332 0 17 17 12 7 5 4
168 65 37 96 174 179 130 168 165 140 189 207 212 248 316 112 241 254 259 287 0 45 10 14 28 33 28 17 15 24 30 30 30 29 29 27 22 17 11 3 360 357 359 0 354 348 332 295 260 236 222 212 216 217 215 219 218 225 230 226 234 235 237 238 228 225 234 243 246 242 241 241 238 235 234 233 232 230 219 216 223 223 224 231 234 228 226 242 273 309 355 9 8 15 12 2 1
273 109 72 143 195 280 127 153 168 156 181 205 217 329 103 215 239 208 247 324 37 34 18 39 51 47 37 30 30 32 32 30 30 26 23 22 17 12 7 3 1 359 359 360 355 349 344 328 282 240 217 199 204 207 206 214 213 219 226 220 227 238 250 255 236 230 252 261 256 249 248 249 240 233 234 232 235 234 220 218 232 235 230 222 224 225 229 237 247 279 336 1 1 8 5 358 358
286 114 132 169 198 255 174 144 174 183 218 223 125 210 228 240 233 131 104 63 66 64 50 55 63 58 49 44 38 34 33 30 30 27 24 21 15 10 5 3 0 359 359 2 5 358 356 1 340 244 204 189 192 200 198 206 209 213 221 223 223 230 251 265 259 253 266 278 277 265 253 251 248 240 238 237 244 240 222 225 245 244 233 226 232 237 240 238 238 261 310 346 359 358 355 358 358
249 288 111 142 208 248 244 229 222 212 237 216 177 232 238 243 159 121 91 91 93 81 62 56 67 61 51 44 37 34 32 28 26 23 22 18 13 12 12 9 5 4 5 9 17 14 14 20 17 129 177 178 172 183 189 195 201 212 216 218 217 221 259 267 262 256 260 275 284 278 257 253 258 258 250 243 247 245 229 233 246 240 230 233 245 247 244 237 235 249 285 316 337 350 347 357 360
174 152 148 239 252 277 263 251 242 220 228 174 209 247 146 120 149 117 87 106 113 100 71 49 54 53 45 39 33 30 28 23 19 16 15 13 13 15 15 14 11 8 10 17 25 24 28 33 31 92 149 152 154 162 166 179 190 203 206 198 189 179 219 244 223 239 245 259 260 272 270 258 261 268 258 242 243 245 234 238 248 240 233 240 253 252 242 232 237 247 268 300 307 328 327 350 3
110 140 263 259 281 292 253 256 259 225 218 193 227 256 107 126 228 136 94 118 151 123 77 51 54 55 45 42 36 29 29 21 14 13 14 16 15 13 10 10 9 10 17 24 29 30 39 48 49 72 117 126 132 137 138 148 154 170 183 164 144 130 136 143 119 136 185 214 194 232 267 259 256 263 255 237 237 241 233 236 244 237 236 249 260 256 244 239 245 247 258 292 299 309 318 349 359
111 306 273 249 260 264 249 270 283 260 218 197 214 178 123 166 222 84 76 125 187 126 84 62 61 63 53 50 46 37 33 23 18 19 19 17 11 8 8 7 6 12 23 27 33 39 50 64 70 83 106 119 123 123 124 133 142 157 158 135 122 104 90 97 96 95 100 65 60 145 278 309 272 260 259 247 245 246 227 224 229 224 228 244 257 249 242 244 246 246 256 282 287 299 310 325 335
117 306 291 278 268 254 281 336 298 281 158 154 191 168 151 168 137 84 68 154 174 131 94 74 64 61 53 49 47 43 33 26 28 25 20 13 6 7 8 7 8 17 30 35 43 50 58 71 78 90 105 117 127 130 122 116 122 125 119 109 105 100 85 82 79 73 74 68 66 67 44 28 27 348 279 271 268 262 214 214 225 229 231 240 267 261 244 243 246 250 263 273 275 289 292 286 306
215 179 308 299 282 230 109 350 285 264 130 141 222 225 158 148 125 68 48 194 195 161 92 71 61 56 48 46 45 45 37 29 32 27 19 12 7 10 10 10 17 27 37 44 54 59 63 72 81 93 100 104 113 124 118 107 106 104 102 100 98 95 87 82 79 73 73 73 73 69 59 48 45 52 34 306 315 16 157 173 211 268 279 274 287 286 256 245 246 254 269 276 278 282 281 280 289
275 254 238 284 289 179 124 10 304 263 137 174 235 272 167 152 139 35 24 210 212 184 85 66 55 57 44 46 48 46 44 36 34 28 20 16 12 13 13 15 27 41 47 51 60 68 73 77 85 96 99 96 98 105 107 103 102 100 97 97 94 93 92 88 85 80 78 80 83 80 73 66 62 66 66 64 69 68 64 62 59 37 19 348 303 307 284 264 263 268 276 282 285 281 283 287 291
1 274 236 186 265 224 125 77 333 292 104 172 231 267 156 154 141 32 15 224 193 155 92 74 57 57 44 48 50 48 54 43 39 31 20 17 16 15 15 21 36 52 56 61 70 78 85 86 90 99 102 99 98 99 101 100 100 99 98 98 96 95 95 92 89 87 85 84 83 82 78 75 74 79 81 81 83 81 75 68 64 59 49 34 31 20 344 335 324 311 309 309 310 309 310 311 309
162 250 258 227 231 264 75 107 28 330 163 151 237 273 269 144 131 57 40 91 159 137 105 92 71 61 53 48 47 45 53 44 35 26 18 16 17 16 19 30 47 62 65 71 81 85 89 92 96 101 103 103 102 101 102 101 100 99 98 98 97 95 93 91 89 88 86 83 81 79 77 76 75 78 84 88 91 87 83 79 75 73 70 64 65 60 48 48 33 6 349 339 329 324 327 328 323
193 206 254 257 234 259 280 148 105 355 238 223 231 266 271 133 128 87 75 109 157 133 117 109 93 78 73 58 61 54 46 43 29 17 13 13 17 21 31 47 61 73 76 80 87 91 93 96 100 103 104 105 105 104 103 100 99 98 97 96 94 93 91 90 88 86 84 84 82 81 79 77 76 76 77 81 84 81 81 82 82 80 79 77 77 75 75 72 64 57 43 30 16 359 357 343 327
213 190 233 252 230 238 252 226 127 76 237 238 207 247 257 158 136 116 86 126 161 128 122 126 114 114 110 93 90 70 56 54 30 13 11 12 21 29 44 64 74 81 85 87 92 96 97 99 104 107 107 106 107 107 105 102 100 97 96 95 93 90 90 89 87 85 84 84 84 83 82 81 80 80 79 79 80 80 81 81 79 78 79 81 82 80 77 74 72 69 66 61 51 41 33 17 356
201 187 240 256 253 251 243 169 76 5 256 247 239 252 262 224 153 137 123 127 143 131 133 145 139 141 136 124 110 85 72 60 30 15 18 20 30 43 61 72 79 87 90 93 99 101 101 103 106 107 106 106 109 109 107 106 103 100 98 96 92 89 89 87 85 85 84 83 83 83 83 82 82 82 81 79 79 79 79 78 77 75 74 75 75 74 72 69 67 63 63 61 57 50 34 22 14
153 193 237 248 257 267 257 119 98 14 261 252 245 256 265 255 159 130 147 148 150 159 162 166 160 157 148 134 115 94 77 55 28 25 31 31 39 58 76 79 82 90 94 98 102 103 104 106 106 105 105 107 109 109 109 108 106 103 100 96 93 91 89 88 86 85 84 84 84 83 82 81 81 80 80 80 80 79 77 76 75 72 70 68 68 70 68 66 63 58 57 52 49 45 31 23 15
210 234 240 246 245 259 272 115 117 159 243 249 226 249 259 252 141 117 162 175 170 178 181 178 163 153 142 129 118 92 83 72 59 52 43 39 45 59 73 79 84 89 94 99 102 104 106 107 105 103 105 107 107 107 108 107 105 104 103 100 98 95 92 90 88 86 86 86 84 83 82 81 81 79 79 79 79 79 77 76 74 75 75 71 70 72 70 68 64 60 56 46 45 49 42 31 24
220 232 242 253 243 259 272 133 126 175 230 248 193 249 260 242 117 118 160 174 163 160 185 176 159 161 153 130 117 112 115 104 84 66 53 47 47 54 62 71 83 89 94 100 103 104 106 106 105 104 105 107 107 107 107 106 104 104 104 102 100 97 93 91 90 89 88 86 85 83 83 82 81 79 78 76 75 75 75 75 73 73 74 70 67 67 67 65 62 58 54 47 48 54 50 38 34
221 219 233 246 221 232 256 161 112 174 232 297 281 269 266 227 147 140 137 141 135 134 151 139 149 158 136 129 119 129 135 117 99 77 62 59 53 54 57 67 83 93 98 102 105 106 106 107 109 110 110 108 107 106 105 105 105 104 103 101 100 98 94 93 92 89 87 86 85 84 83 82 82 80 79 78 77 76 75 75 72 70 71 69 65 63 61 60 59 57 52 48 49 45 45 40 38
219 216 229 244 225 223 247 91 92 211 211 237 265 279 266 220 204 186 136 151 157 156 168 160 160 158 142 150 148 131 127 115 110 100 76 64 62 57 56 65 80 92 99 103 107 111 112 113 115 117 116 114 112 110 108 106 104 102 100 98 96 94 91 89 87 84 84 84 84 84 83 83 82 81 80 79 78 77 75 74 72 70 69 69 67 62 59 57 57 58 53 50 51 44 37 39 38
227 216 222 240 243 230 225 132 179 259 236 190 217 263 255 177 209 205 150 171 178 173 192 184 167 168 173 167 156 147 137 132 117 109 96 74 77 71 62 65 68 78 93 102 107 113 116 118 121 122 122 120 120 119 117 114 111 107 103 97 91 88 83 79 80 82 83 83 83 83 83 82 81 80 79 78 77 75 74 72 71 69 68 67 66 63 60 56 54 55 55 53 54 50 40 37 33
248 217 215 230 241 229 196 179 198 252 266 103 201 255 254 173 196 178 159 187 186 182 201 195 181 178 179 171 160 160 154 151 145 123 114 98 92 88 75 70 70 81 98 106 110 114 118 121 124 124 124 123 123 122 123 122 120 117 113 105 95 88 86 82 85 87 87 87 86 84 83 81 79 78 77 75 74 73 71 70 68 66 65 64 63 61 59 57 54 53 54 53 54 53 50 42 30
242 70 190 201 206 207 196 192 206 245 320 126 205 248 274 254 192 133 156 190 197 202 208 198 190 186 178 175 170 168 167 161 151 141 130 116 102 95 89 81 84 101 111 114 117 119 122 125 126 126 125 125 125 125 126 124 121 118 113 107 101 96 96 94 92 91 91 90 88 85 82 80 78 77 75 73 72 70 69 67 66 63 62 61 59 58 56 55 53 50 51 51 52 52 52 49 37
286 72 104 143 173 190 181 192 214 251 300 235 204 178 258 255 192 124 161 208 220 206 201 196 187 184 179 178 179 174 170 165 156 150 139 126 112 97 98 96 99 114 117 118 120 121 122 124 126 126 124 124 125 126 126 123 120 116 112 109 105 102 100 98 95 92 91 90 88 85 81 78 76 74 73 72 70 68 67 66 64 62 61 60 58 56 53 51 48 46 45 45 46 47 48 49 44
129 121 103 93 86 101 136 199 198 163 239 243 204 175 227 261 192 165 178 232 231 197 190 192 179 179 182 178 180 177 168 165 165 158 146 136 125 111 112 111 112 120 120 120 121 120 120 122 123 123 121 121 122 124 123 120 117 114 112 110 108 106 103 100 97 92 89 88 85 82 79 76 74 71 69 68 66 65 64 62 62 60 58 58 56 54 52 50 47 44 43 42 42 42 43 43 41
143 140 109 98 89 91 106 163 152 213 237 237 195 180 217 259 206 196 196 230 207 172 174 177 170 178 182 180 182 178 172 168 167 163 158 152 141 134 128 121 120 124 123 123 122 121 121 121 122 121 119 120 121 120 119 117 115 113 112 111 109 107 105 101 96 92 88 87 83 79 77 74 71 68 65 63 61 60 58 56 55 53 52 50 49 47 45 44 43 40 40 39 38 38 38 36 34
161 156 136 129 117 133 156 139 176 242 236 187 78 177 218 237 222 195 174 117 154 172 174 171 173 180 180 181 183 178 175 169 166 168 165 164 160 155 145 133 130 129 127 126 125 124 122 121 122 121 119 119 119 119 118 116 114 113 112 111 108 106 104 100 95 91 88 85 81 78 75 71 67 64 60 57 55 53 52 50 48 46 44 42 41 40 38 37 36 33 31 30 30 30 28 28 25
207 166 165 180 176 174 210 195 197 242 238 71 31 192 222 240 246 235 168 157 175 181 173 171 173 177 177 179 180 176 174 171 170 172 170 172 171 165 159 151 145 140 136 134 131 127 125 123 124 123 121 120 120 119 118 116 115 113 112 109 107 104 100 97 93 90 87 83 81 77 73 69 64 60 56 53 49 47 46 44 42 39 37 35 33 32 30 29 29 27 25 24 24 22 20 21 19
194 179 179 192 180 187 215 196 226 259 220 59 6 204 223 248 256 261 156 131 118 73 47 173 171 173 175 174 174 174 173 176 176 175 177 180 177 171 167 161 156 152 146 141 137 133 130 128 128 126 124 124 123 122 120 118 115 113 111 108 105 102 98 95 92 89 86 82 78 75 72 67 63 59 54 50 46 43 41 39 37 34 31 29 26 24 23 22 21 22 19 18 18 16 15 15 12
190 186 191 205 193 210 221 200 231 260 115 104 109 191 207 198 161 359 37 63 59 68 44 122 163 163 164 165 170 174 177 181 180 179 185 184 179 175 171 168 162 157 153 148 143 138 134 132 131 129 128 127 126 124 121 118 115 112 110 107 104 101 98 94 91 87 84 80 75 72 70 66 63 58 53 49 45 41 38 35 32 30 27 25 22 20 19 16 15 17 15 13 12 9 9 9 6
183 72 197 233 227 187 187 315 59 62 66 183 182 229 246 199 126 80 47 44 72 95 112 163 167 159 160 169 177 181 183 182 182 185 188 186 183 180 175 172 166 160 159 154 148 144 139 136 134 133 132 131 129 127 123 120 116 113 109 106 103 100 96 93 89 85 81 77 72 69 65 62 59 54 48 43 40 36 33 31 28 25 23 21 18 16 15 13 12 12 10 8 7 5 4 4 1
149 174 198 206 353 98 128 191 77 71 266 222 170 227 254 197 201 135 117 158 158 158 178 183 180 171 174 185 188 188 185 182 184 187 188 186 186 186 182 176 170 167 164 159 153 148 144 142 140 138 136 134 133 129 126 123 119 115 110 107 103 99 95 91 87 82 76 70 66 62 58 54 51 45 40 36 32 28 26 24 22 19 17 15 13 11 9 8 9 9 7 5 3 2 1 359 356
142 186 189 136 21 341 191 237 156 180 252 249 178 222 217 185 208 135 149 193 193 188 186 183 184 183 190 197 192 188 184 180 184 188 190 192 189 188 185 181 176 172 167 162 157 151 148 147 145 143 140 139 137 134 130 127 123 118 114 109 105 99 95 89 84 78 72 66 61 57 53 50 46 41 35 31 26 23 20 18 17 14 12 10 8 6 4 4 5 4 3 1 358 357 358 356 352
121 200 164 118 223 204 174 223 225 200 240 255 190 218 226 204 198 164 186 202 197 185 179 184 192 194 198 198 190 186 182 180 187 191 193 193 191 189 187 184 180 175 170 164 159 155 152 151 148 146 145 143 141 138 135 132 128 124 119 115 108 102 96 91 86 79 71 65 61 57 53 49 45 39 33 28 22 19 15 13 12 9 8 6 4 2 1 0 1 1 359 358 354 353 354 352 348
26 175 160 277 265 215 171 188 210 214 237 256 210 206 216 207 196 184 195 200 186 175 178 195 200 199 197 192 186 186 186 188 191 191 192 191 190 191 189 186 182 177 173 167 162 159 157 155 152 151 149 147 145 144 141 138 135 130 124 120 113 107 101 95 88 80 69 64 61 57 53 46 41 35 28 23 19 15 12 10 8 7 5 3 2 0 360 359 359 358 357 355 352 352 351 349 345
173 180 177 186 197 30 253 214 148 226 238 241 254 258 207 178 192 192 194 195 177 174 184 197 200 198 194 190 187 186 186 191 191 187 188 189 188 191 190 185 181 178 175 171 166 164 161 159 157 156 155 153 152 152 150 146 142 138 132 125 121 114 107 100 91 80 69 63 59 53 49 43 37 31 25 20 17 13 12 10 7 6 3 1 1 359 358 358 357 356 354 352 351 350 348 345 341
186 191 185 183 172 153 205 218 167 194 253 227 255 275 234 146 135 206 179 231 185 186 192 194 193 192 192 194 192 188 187 189 189 186 185 184 185 187 186 181 180 181 180 177 173 169 167 164 163 163 162 161 161 160 158 154 150 147 142 135 132 125 118 111 98 80 69 62 57 51 45 38 31 24 18 15 13 10 9 7 5 3 2 1 359 357 356 356 355 353 351 350 348 346 344 341 339